Regional Weather Roundup
Issued by NWS

Home | Current Version | Previous Version | Graphics & Text | Print | Product List | Glossary On
Versions: 1 2 3 4 5 6 7 8 9 10 11 12 13 14 15 16 17 18 19 20 21 22 23 24 25 26 27 28 29 30 31 32 33 34 35 36 37 38 39 40 41 42 43 44 45 46 47 48 49 50
000
ASUS44 KMEG 270610
RWRTN
TENNESSEE HOURLY STATE WEATHER ROUNDUP
NATIONAL WEATHER SERVICE MEMPHIS TN
100 AM CDT FRI MAY 27 2016

TNZ002-004-019-021-049-052-054-088>092-270700-
WEST TENNESSEE

CITY           SKY/WX    TMP DP  RH WIND       PRES   REMARKS
MEMPHIS INTL   CLOUDY    70  66  87 E8        29.92F
NWS MEMPHIS      N/A     68 N/A N/A MISG        N/A
JACKSON        CLOUDY    67  65  93 SE5       29.95F
DYERSBURG      CLOUDY    66  64  94 E8        29.93F
UNION CITY     PTCLDY    66  66 100 CALM      29.96S
PARIS          CLEAR     64  64 100 CALM      29.97F
LEXINGTON        N/A     66  66 100 CALM      29.97F
$$

TNZ008-025-027-028-033-062-065-066-270700-
NORTH MIDDLE TENNESSEE

CITY           SKY/WX    TMP DP  RH WIND       PRES   REMARKS
NASHVILLE      MOCLDY    69  63  81 CALM      30.01R
CLARKSVILLE    CLOUDY    65  64  97 CALM      29.99S
SMYRNA         CLOUDY    69  65  87 CALM      30.02R
COOKEVILLE     CLEAR     68  63  83 CALM      30.03F
CROSSVILLE     CLEAR     67  60  78 SE3       30.10F
$$

TNZ061-075-076-078-094-096-097-270700-
SOUTH MIDDLE TENNESSEE

CITY           SKY/WX    TMP DP  RH WIND       PRES   REMARKS
TULLAHOMA      CLEAR     66  64  94 CALM      30.05F
WINCHESTER     CLEAR     70  61  73 CALM      30.05F
MCMINNVILLE    CLEAR     64  64 100 CALM      30.04F
COLUMBIA       CLEAR    N/A N/A N/A CALM      29.99F
SHELBYVILLE    CLEAR     70  64  83 S3        30.04S
$$

TNZ017-018-042-046-047-270700-
NORTHEAST TENNESSEE

CITY           SKY/WX    TMP DP  RH WIND       PRES   REMARKS
TRI CITIES     PTCLDY    61  60  97 E3        30.13F
$$

TNZ012-013-036-069-073-074-270700-
CENTRAL EAST TENNESSEE

CITY           SKY/WX    TMP DP  RH WIND       PRES   REMARKS
KNOXVILLE      CLEAR     68  64  87 CALM      30.06F
OAK RIDGE      PTCLDY    66  63  90 CALM      30.09S
GATLINBURG     CLEAR     64  63  94 CALM      30.07F
$$

TNZ083-085-099-270700-
SOUTHEAST TENNESSEE

CITY           SKY/WX    TMP DP  RH WIND       PRES   REMARKS
CHATTANOOGA    PTCLDY    70  62  76 E3        30.05F
$$

SKY/WX REPORTED AS FAIR MEANS FEW OR NO CLOUDS BELOW
12 THOUSAND FEET.





USA.gov is the U.S. government's official web portal to all federal, state and local government web resources and services.